QPF
0.00 0.00 0.00 0.00 0.00 0.00 0.00 0.00 0.00 0.00 0.00 0.00 0.00 0.00 0.00 0.00 0.00 0.00 0.00 0.00 0.00 0.00 0.00 0.00 0.00 0.00 0.00 0.00 0.00 0.00 0.00 0.00 0.00 0.00 0.00 0.00 0.00 0.00 0.00 0.00 0.00 0.00 0.00 0.00
0.00 0.00 0.00 0.00 0.00 0.00 0.00 0.00 0.00 0.00 0.00 0.00 0.00 0.00 0.00 0.00 0.00 0.00 0.00 0.00 0.00 0.00 0.00 0.00 0.00 0.00 0.00 0.00 0.00 0.00 0.00 0.00 0.00 0.00 0.00 0.00 0.00 0.00 0.00 0.00 0.00 0.00 0.00 0.00
0.00 0.00 0.00 0.00 0.00 0.00 0.00 0.00 0.00 0.00 0.00 0.00 0.00 0.00 0.00 0.00 0.00 0.00 0.00 0.00 0.00 0.00 0.00 0.00 0.00 0.00 0.00 0.00 0.00 0.00 0.00 0.00 0.00 0.00 0.00 0.00 0.00 0.00 0.00 0.00 0.00 0.00 0.00 0.00
0.00 0.00 0.00 0.00 0.00 0.00 0.00 0.00 0.00 0.00 0.00 0.00 0.00 0.00 0.00 0.00 0.00 0.00 0.00 0.00 0.00 0.00 0.00 0.00 0.00 0.00 0.00 0.00 0.00 0.00 0.00 0.00 0.00 0.00 0.00 0.00 0.00 0.00 0.00 0.00 0.00 0.00 0.00 0.00
0.00 0.00 0.00 0.00 0.00 0.00 0.00 0.00 0.00 0.00 0.00 0.00 0.00 0.00 0.00 0.00 0.00 0.00 0.00 0.00 0.00 0.00 0.00 0.00 0.00 0.00 0.00 0.00 0.00 0.00 0.00 0.00 0.00 0.00 0.00 0.00 0.00 0.00 0.00 0.00 0.00 0.00 0.00 0.00
0.00 0.00 0.00 0.00 0.00 0.00 0.00 0.00 0.00 0.00 0.00 0.00 0.00 0.00 0.00 0.00 0.00 0.00 0.00 0.00 0.00 0.00 0.00 0.00 0.00 0.00 0.00 0.00 0.00 0.00 0.00 0.00 0.00 0.00 0.00 0.00 0.00 0.00 0.00 0.00 0.00 0.00 0.00 0.00
0.00 0.00 0.00 0.00 0.00 0.00 0.00 0.00 0.00 0.00 0.00 0.00 0.00 0.00 0.00 0.00 0.00 0.00 0.00 0.00 0.00 0.00 0.00 0.00 0.00 0.00 0.00 0.00 0.00 0.00 0.00 0.00 0.00 0.00 0.00 0.00 0.00 0.00 0.00 0.00 0.00 0.00 0.00 0.00
0.00 0.00 0.00 0.00 0.00 0.00 0.00 0.00 0.00 0.00 0.00 0.00 0.00 0.00 0.00 0.00 0.00 0.00 0.00 0.00 0.00 0.00 0.00 0.00 0.00 0.00 0.00 0.00 0.00 0.00 0.00 0.00 0.00 0.00 0.00 0.00 0.00 0.00 0.00 0.00 0.00 0.00 0.00 0.00
0.00 0.00 0.00 0.00 0.00 0.00 0.00 0.00 0.00 0.00 0.00 0.00 0.00 0.00 0.01 0.01 0.01 0.00 0.00 0.00 0.00 0.00 0.00 0.00 0.00 0.00 0.00 0.00 0.00 0.00 0.00 0.00 0.00 0.00 0.00 0.00 0.00 0.00 0.00 0.00 0.00 0.00 0.00 0.00
0.00 0.00 0.00 0.00 0.00 0.00 0.00 0.00 0.00 0.00 0.00 0.00 0.00 0.01 0.02 0.00 0.00 0.01 0.01 0.00 0.00 0.00 0.00 0.00 0.00 0.00 0.00 0.00 0.00 0.00 0.00 0.00 0.00 0.00 0.00 0.00 0.00 0.00 0.00 0.00 0.01 0.02 0.02 0.01
0.00 0.00 0.00 0.00 0.00 0.00 0.00 0.00 0.00 0.00 0.00 0.00 0.00 0.02 0.01 0.00 0.00 0.00 0.02 0.01 0.00 0.00 0.00 0.00 0.00 0.00 0.00 0.00 0.00 0.00 0.00 0.00 0.00 0.02 0.01 0.00 0.00 0.00 0.00 0.01 0.03 0.05 0.07 0.05
0.00 0.00 0.00 0.00 0.00 0.00 0.00 0.00 0.00 0.00 0.00 0.00 0.01 0.01 0.00 0.00 0.00 0.00 0.00 0.01 0.00 0.00 0.00 0.00 0.00 0.00 0.00 0.00 0.00 0.00 0.00 0.00 0.00 0.00 0.00 0.00 0.00 0.03 0.03 0.03 0.07 0.25 0.37 0.41
0.00 0.00 0.00 0.00 0.00 0.00 0.00 0.00 0.00 0.00 0.00 0.00 0.00 0.00 0.00 0.00 0.00 0.00 0.00 0.00 0.00 0.00 0.00 0.00 0.00 0.00 0.00 0.00 0.00 0.00 0.00 0.00 0.00 0.00 0.01 0.01 0.00 0.01 0.04 0.06 0.09 0.18 0.41 0.75
0.00 0.00 0.00 0.00 0.00 0.00 0.00 0.00 0.00 0.00 0.00 0.00 0.00 0.00 0.00 0.00 0.00 0.00 0.00 0.00 0.00 0.00 0.00 0.00 0.00 0.00 0.00 0.00 0.00 0.00 0.00 0.00 0.00 0.00 0.00 0.00 0.01 0.01 0.00 0.00 0.01 0.01 0.01 0.03
0.00 0.00 0.00 0.00 0.00 0.00 0.00 0.00 0.00 0.00 0.00 0.00 0.00 0.00 0.00 0.00 0.00 0.00 0.00 0.00 0.00 0.00 0.00 0.00 0.00 0.00 0.00 0.00 0.00 0.00 0.00 0.00 0.00 0.00 0.00 0.00 0.00 0.00 0.00 0.00 0.00 0.00 0.00 0.00
0.00 0.00 0.00 0.00 0.00 0.00 0.00 0.00 0.00 0.00 0.00 0.00 0.00 0.00 0.00 0.00 0.00 0.00 0.00 0.00 0.00 0.00 0.00 0.00 0.00 0.00 0.00 0.00 0.00 0.00 0.00 0.00 0.00 0.00 0.00 0.00 0.00 0.00 0.00 0.00 0.00 0.00 0.00 0.00
0.00 0.00 0.00 0.00 0.00 0.00 0.00 0.00 0.00 0.00 0.00 0.00 0.00 0.00 0.00 0.00 0.00 0.00 0.00 0.00 0.00 0.00 0.00 0.00 0.00 0.00 0.00 0.00 0.00 0.00 0.00 0.00 0.00 0.00 0.00 0.00 0.00 0.00 0.00 0.00 0.00 0.00 0.00 0.00
0.00 0.00 0.00 0.00 0.00 0.00 0.00 0.00 0.00 0.00 0.00 0.00 0.00 0.00 0.00 0.00 0.00 0.00 0.00 0.00 0.00 0.00 0.00 0.00 0.00 0.00 0.00 0.00 0.00 0.00 0.00 0.00 0.00 0.00 0.00 0.00 0.00 0.00 0.00 0.00 0.00 0.00 0.00 0.00
0.00 0.00 0.00 0.00 0.00 0.00 0.00 0.00 0.00 0.00 0.00 0.00 0.00 0.00 0.00 0.00 0.00 0.00 0.00 0.00 0.00 0.00 0.00 0.00 0.00 0.00 0.00 0.00 0.00 0.00 0.00 0.00 0.00 0.00 0.00 0.00 0.00 0.00 0.00 0.00 0.00 0.00 0.00 0.00
0.00 0.00 0.00 0.00 0.00 0.00 0.00 0.00 0.00 0.00 0.00 0.00 0.00 0.00 0.00 0.00 0.00 0.00 0.00 0.00 0.00 0.00 0.00 0.00 0.00 0.00 0.00 0.00 0.00 0.00 0.00 0.00 0.00 0.00 0.00 0.00 0.00 0.00 0.00 0.00 0.00 0.00 0.00 0.00
0.00 0.00 0.00 0.00 0.00 0.00 0.00 0.00 0.00 0.00 0.00 0.00 0.00 0.00 0.00 0.00 0.00 0.00 0.00 0.00 0.00 0.00 0.00 0.00 0.00 0.00 0.00 0.00 0.00 0.00 0.00 0.00 0.00 0.00 0.00 0.00 0.00 0.00 0.00 0.00 0.00 0.00 0.00 0.00
0.00 0.00 0.00 0.00 0.00 0.00 0.00 0.00 0.00 0.00 0.00 0.00 0.00 0.00 0.00 0.00 0.00 0.00 0.00 0.00 0.00 0.00 0.00 0.00 0.00 0.00 0.00 0.00 0.00 0.00 0.00 0.00 0.00 0.00 0.00 0.00 0.00 0.00 0.00 0.00 0.00 0.00 0.00 0.00
0.00 0.00 0.00 0.00 0.00 0.00 0.00 0.00 0.00 0.00 0.00 0.00 0.00 0.00 0.00 0.00 0.00 0.00 0.00 0.00 0.00 0.00 0.00 0.00 0.00 0.00 0.00 0.00 0.00 0.00 0.00 0.00 0.00 0.00 0.00 0.00 0.00 0.00 0.00 0.00 0.00 0.00 0.00 0.00
0.00 0.00 0.00 0.00 0.00 0.00 0.00 0.00 0.00 0.00 0.00 0.00 0.00 0.00 0.00 0.00 0.00 0.00 0.00 0.00 0.00 0.00 0.00 0.00 0.00 0.00 0.00 0.00 0.00 0.00 0.00 0.00 0.00 0.00 0.00 0.00 0.00 0.00 0.00 0.00 0.00 0.00 0.00 0.00
0.00 0.00 0.00 0.00 0.00 0.00 0.00 0.00 0.00 0.00 0.00 0.00 0.00 0.00 0.00 0.00 0.00 0.00 0.00 0.00 0.00 0.00 0.00 0.00 0.00 0.00 0.00 0.00 0.00 0.00 0.00 0.00 0.00 0.00 0.00 0.00 0.00 0.00 0.00 0.00 0.00 0.00 0.00 0.00
0.00 0.00 0.00 0.00 0.00 0.00 0.00 0.00 0.00 0.00 0.00 0.00 0.00 0.00 0.00 0.00 0.00 0.00 0.00 0.00 0.00 0.00 0.00 0.00 0.00 0.00 0.00 0.00 0.00 0.00 0.00 0.00 0.00 0.00 0.00 0.00 0.00 0.00 0.00 0.00 0.00 0.00 0.00 0.00
MSLP
1018.29 1019.19 1020.12 1020.66 1020.75 1021.20 1021.41 1021.49 1021.42 1020.51 1019.34 1018.26 1017.31 1015.67 1015.33 1014.33 1013.51 1012.98 1012.08 1011.71 1010.73 1009.47 1007.96 1007.32 1007.06 1006.94 1007.28 1007.89 1008.38 1008.81 1009.27 1009.92 1011.25 1011.89 1012.34 1012.78 1012.68 1013.21 1013.38 1013.44 1013.74 1014.18 1014.56 1015.02
1019.22 1019.92 1020.51 1020.54 1020.66 1021.01 1021.07 1021.23 1021.22 1020.28 1019.40 1019.16 1017.65 1015.64 1015.32 1014.59 1013.84 1012.90 1012.27 1011.50 1010.87 1009.75 1008.34 1007.17 1006.66 1006.39 1006.20 1006.45 1006.67 1007.35 1007.91 1008.64 1009.03 1010.03 1010.78 1011.54 1012.14 1012.42 1012.61 1012.78 1012.84 1013.00 1013.47 1014.00
1019.96 1020.67 1020.36 1020.39 1020.65 1020.94 1020.94 1021.17 1021.11 1020.79 1019.71 1019.15 1018.49 1016.27 1015.49 1014.73 1013.72 1012.58 1011.87 1011.23 1010.56 1010.03 1009.09 1007.81 1006.94 1006.24 1005.78 1005.59 1005.64 1006.09 1006.43 1006.97 1007.69 1008.28 1009.60 1010.73 1011.50 1011.93 1012.23 1011.95 1011.73 1011.70 1012.23 1012.77
1020.52 1020.66 1020.57 1020.62 1020.89 1021.11 1021.01 1020.56 1020.54 1020.58 1020.49 1020.64 1019.60 1017.68 1016.59 1015.10 1013.97 1013.00 1012.04 1012.00 1011.39 1010.54 1009.50 1008.68 1007.55 1006.48 1005.86 1005.11 1004.95 1004.96 1005.22 1005.75 1006.32 1007.41 1008.41 1008.66 1009.00 1009.82 1009.38 1009.71 1010.35 1010.90 1011.31 1011.62
1021.33 1020.98 1020.82 1020.81 1020.89 1020.70 1020.60 1020.30 1020.45 1020.38 1020.89 1021.05 1019.86 1019.54 1017.82 1016.42 1015.65 1014.69 1013.84 1012.91 1012.25 1011.25 1010.26 1009.30 1008.47 1007.21 1006.41 1005.88 1005.00 1004.24 1004.28 1004.66 1005.02 1006.01 1006.34 1007.06 1007.57 1007.78 1008.45 1009.41 1009.91 1010.14 1010.34 1010.59
1021.38 1020.95 1020.95 1021.11 1020.66 1020.50 1020.32 1020.15 1020.20 1020.47 1021.06 1021.26 1020.27 1020.18 1019.43 1018.66 1017.91 1015.89 1014.73 1013.87 1012.99 1012.21 1011.39 1010.35 1009.48 1008.13 1007.01 1006.21 1005.67 1004.67 1003.57 1003.37 1003.90 1004.53 1005.24 1005.69 1006.01 1006.27 1007.30 1008.01 1008.60 1009.04 1009.03 1009.69
1022.23 1021.88 1021.63 1021.47 1021.17 1020.76 1020.94 1021.06 1021.86 1022.07 1022.07 1021.82 1020.59 1020.58 1020.94 1019.27 1018.12 1017.13 1016.22 1015.05 1014.00 1013.31 1012.33 1011.30 1010.08 1008.96 1008.17 1007.18 1006.10 1004.88 1003.52 1002.53 1002.99 1003.49 1003.92 1004.22 1004.62 1005.49 1005.74 1006.19 1006.85 1007.85 1008.66 1008.63
1024.00 1023.22 1022.78 1022.54 1022.52 1022.35 1022.10 1022.01 1022.63 1023.42 1023.30 1022.43 1021.04 1021.10 1020.57 1019.85 1018.71 1018.56 1017.10 1015.76 1015.18 1013.92 1013.45 1012.42 1011.48 1010.29 1009.71 1008.60 1007.28 1005.85 1004.58 1002.86 1002.77 1003.23 1003.49 1003.82 1003.99 1004.61 1005.14 1005.49 1005.96 1006.16 1006.50 1007.15
1024.70 1024.09 1023.19 1022.72 1022.58 1022.63 1022.25 1022.43 1022.61 1023.15 1023.58 1023.25 1021.86 1021.27 1020.32 1020.14 1019.14 1018.18 1017.14 1015.90 1015.63 1015.09 1014.86 1013.89 1012.69 1011.64 1011.26 1009.89 1008.65 1007.70 1006.46 1004.78 1003.83 1003.32 1003.88 1004.20 1004.67 1005.11 1005.21 1005.55 1005.79 1005.90 1006.23 1006.14
1024.88 1024.85 1023.92 1023.27 1022.73 1022.62 1022.75 1022.92 1023.15 1023.62 1024.07 1023.67 1022.35 1022.02 1021.40 1020.33 1019.60 1018.69 1018.19 1017.74 1016.44 1015.76 1015.56 1015.15 1014.29 1013.05 1012.21 1011.22 1010.13 1008.90 1007.81 1007.17 1005.85 1005.19 1004.14 1003.83 1004.19 1004.43 1004.73 1005.31 1005.69 1005.74 1006.03 1006.51
1025.06 1025.33 1024.75 1024.05 1023.85 1023.85 1023.78 1023.84 1024.03 1024.25 1024.68 1024.76 1023.65 1022.51 1021.30 1020.71 1019.82 1019.39 1018.83 1018.16 1017.62 1016.69 1016.10 1015.89 1015.16 1014.46 1012.99 1012.28 1011.29 1010.23 1009.32 1008.35 1007.18 1006.76 1005.76 1004.90 1004.38 1004.10 1004.21 1004.70 1005.06 1005.15 1004.95 1006.27
1025.52 1025.88 1025.77 1025.08 1024.22 1024.15 1024.37 1024.94 1025.25 1025.60 1025.80 1025.43 1024.51 1022.61 1021.50 1020.95 1020.46 1019.83 1019.36 1019.05 1018.38 1017.47 1016.79 1015.92 1015.74 1015.33 1014.15 1013.21 1012.34 1011.60 1010.66 1009.87 1009.34 1008.44 1007.53 1006.82 1005.81 1005.45 1005.18 1004.81 1004.86 1005.14 1005.52 1005.66
1025.63 1026.29 1026.41 1025.67 1025.09 1024.76 1025.10 1025.51 1026.06 1026.47 1026.41 1025.59 1024.87 1022.42 1021.20 1021.07 1020.79 1020.61 1020.17 1019.71 1019.07 1018.30 1017.40 1016.93 1016.66 1015.69 1014.74 1014.22 1013.34 1012.74 1012.28 1011.20 1010.32 1009.89 1009.10 1008.29 1007.41 1007.15 1006.74 1006.17 1005.64 1005.58 1005.14 1004.31
1025.67 1026.33 1026.46 1026.21 1025.81 1025.78 1025.92 1025.89 1026.25 1026.75 1026.90 1025.80 1024.25 1022.70 1022.01 1021.75 1021.57 1021.14 1020.62 1020.02 1019.54 1019.02 1018.64 1018.11 1017.32 1016.19 1014.96 1014.25 1014.71 1014.05 1013.12 1012.50 1011.67 1010.66 1010.51 1009.71 1009.09 1008.65 1008.25 1007.78 1007.33 1006.82 1006.04 1005.22
1026.25 1026.76 1026.88 1026.58 1026.23 1026.19 1025.98 1025.85 1025.97 1026.26 1025.96 1025.88 1024.02 1023.54 1022.79 1022.39 1022.04 1021.57 1021.19 1020.63 1020.01 1019.39 1018.86 1018.33 1017.66 1016.86 1016.26 1015.63 1015.41 1014.62 1014.07 1013.44 1012.83 1011.79 1011.34 1011.01 1010.00 1009.16 1008.58 1008.32 1007.62 1007.16 1006.94 1006.22
1026.80 1027.14 1027.50 1027.12 1026.36 1026.13 1025.80 1025.21 1025.25 1025.07 1024.94 1024.83 1024.21 1023.40 1022.87 1022.52 1022.06 1021.80 1021.54 1021.02 1020.45 1019.84 1019.24 1018.82 1018.28 1017.60 1017.12 1016.52 1016.05 1014.94 1014.69 1014.38 1013.05 1011.76 1012.49 1011.59 1010.84 1010.02 1009.15 1008.78 1008.04 1007.26 1007.63 1006.79
1027.27 1027.51 1028.12 1027.63 1026.92 1026.21 1025.28 1024.09 1024.04 1023.92 1023.86 1023.73 1023.67 1023.23 1022.84 1022.56 1022.33 1021.97 1021.69 1021.23 1020.86 1020.42 1019.96 1019.51 1019.19 1018.87 1018.13 1017.37 1016.71 1016.40 1015.95 1015.05 1013.59 1012.98 1012.75 1012.12 1011.08 1010.50 1010.13 1009.77 1008.93 1008.27 1007.36 1007.44
1027.31 1027.87 1028.26 1028.24 1027.27 1026.12 1024.03 1023.34 1023.26 1023.35 1023.38 1023.32 1023.28 1023.11 1022.89 1022.64 1022.26 1021.94 1021.61 1021.34 1021.12 1020.74 1020.28 1019.75 1019.17 1018.62 1018.38 1018.04 1017.36 1016.90 1016.92 1015.30 1014.36 1013.80 1013.69 1012.37 1012.08 1011.32 1010.92 1010.53 1009.55 1008.44 1008.07 1007.76
1026.90 1027.76 1028.45 1028.52 1027.78 1025.63 1023.59 1023.29 1023.22 1023.20 1023.40 1023.22 1023.23 1023.09 1022.87 1022.61 1022.36 1021.88 1021.60 1021.34 1021.22 1021.05 1020.76 1020.31 1019.86 1019.44 1018.87 1018.37 1018.15 1017.65 1016.13 1015.14 1014.64 1014.10 1013.82 1013.68 1013.10 1012.44 1011.39 1010.56 1009.81 1009.00 1008.33 1007.92
1027.21 1027.69 1028.28 1028.68 1028.01 1026.20 1023.44 1022.94 1022.83 1023.29 1023.45 1023.14 1023.05 1023.05 1022.97 1022.78 1022.74 1021.98 1021.45 1021.47 1021.41 1021.27 1020.99 1020.54 1020.11 1019.59 1019.03 1018.66 1018.25 1017.89 1017.36 1016.55 1015.54 1014.93 1014.33 1013.75 1013.25 1012.49 1010.95 1011.07 1010.14 1009.15 1008.82 1008.22
1027.36 1027.85 1027.93 1028.12 1027.38 1025.10 1022.78 1022.60 1022.81 1023.55 1023.53 1022.95 1023.03 1023.03 1022.98 1023.04 1022.55 1021.84 1021.69 1021.53 1021.56 1021.51 1021.25 1020.92 1020.56 1020.23 1019.77 1019.22 1018.79 1018.13 1017.47 1017.03 1016.74 1015.94 1014.86 1014.01 1013.41 1012.81 1011.91 1010.97 1010.30 1009.72 1009.03 1008.17
1025.42 1026.25 1026.84 1027.11 1026.57 1024.39 1022.15 1022.40 1022.68 1022.67 1022.66 1022.67 1022.75 1022.78 1022.66 1022.45 1022.14 1021.93 1021.80 1021.76 1021.70 1021.62 1021.45 1021.19 1020.88 1020.41 1019.99 1019.49 1018.79 1018.04 1017.28 1016.49 1015.95 1015.19 1014.62 1014.04 1013.30 1012.51 1011.69 1010.76 1010.12 1009.42 1009.16 1008.11
1024.53 1023.84 1024.37 1024.46 1023.20 1022.03 1021.52 1021.40 1021.48 1021.90 1022.52 1022.61 1022.70 1022.53 1022.46 1022.42 1022.14 1022.05 1022.04 1022.01 1021.89 1021.77 1021.57 1021.33 1021.13 1020.60 1019.97 1019.56 1019.10 1018.46 1017.69 1017.03 1016.01 1015.02 1014.39 1013.67 1012.86 1012.18 1011.42 1010.46 1009.61 1009.23 1008.31 1007.75
1023.53 1023.20 1023.38 1023.33 1021.78 1021.80 1021.69 1021.49 1021.55 1021.77 1022.16 1022.10 1022.25 1022.17 1022.05 1022.15 1022.13 1022.24 1022.33 1022.32 1022.14 1021.85 1021.56 1021.29 1020.97 1020.65 1020.07 1019.50 1019.01 1018.44 1017.53 1016.60 1015.64 1014.69 1013.81 1012.97 1012.14 1011.43 1010.74 1010.20 1009.65 1008.66 1008.00 1007.28
1023.12 1023.01 1022.72 1022.35 1021.52 1021.42 1021.17 1021.16 1021.30 1021.37 1021.56 1021.65 1021.73 1021.87 1021.88 1022.17 1022.46 1022.61 1022.59 1022.39 1022.08 1021.66 1021.35 1021.08 1020.73 1020.38 1019.86 1019.34 1018.70 1017.96 1017.20 1016.40 1015.50 1014.53 1013.50 1012.44 1011.52 1010.87 1009.75 1009.13 1008.34 1007.94 1006.69 1006.41
1022.00 1021.62 1021.96 1020.99 1020.68 1020.83 1020.74 1020.57 1020.76 1021.01 1021.03 1020.98 1021.32 1021.44 1021.92 1022.34 1022.63 1022.74 1022.70 1022.40 1022.05 1021.69 1021.25 1020.85 1020.50 1020.05 1019.58 1019.03 1018.35 1017.77 1017.10 1016.22 1015.22 1014.00 1012.91 1011.92 1010.80 1009.62 1008.69 1007.52 1006.26 1006.19 1005.52 1005.46
Thickness
5619 5611 5598 5605 5608 5607 5605 5603 5597 5603 5620 5630 5637 5656 5661 5673 5681 5684 5697 5700 5710 5723 5743 5754 5759 5766 5766 5766 5766 5769 5770 5770 5763 5761 5759 5758 5760 5758 5759 5759 5757 5754 5751 5748
5600 5596 5603 5605 5603 5600 5598 5596 5590 5602 5614 5612 5622 5647 5649 5654 5661 5672 5681 5691 5694 5707 5724 5739 5748 5755 5762 5766 5771 5770 5770 5769 5771 5767 5766 5760 5757 5757 5759 5759 5760 5761 5757 5752
5592 5596 5600 5597 5593 5590 5589 5587 5583 5584 5595 5600 5598 5623 5632 5644 5650 5662 5669 5677 5684 5687 5699 5717 5730 5740 5753 5761 5767 5769 5772 5773 5772 5772 5763 5756 5752 5752 5753 5761 5764 5766 5761 5758
5588 5591 5590 5589 5584 5583 5577 5586 5581 5578 5573 5561 5580 5582 5605 5614 5628 5636 5643 5639 5652 5666 5681 5694 5711 5725 5733 5751 5760 5767 5768 5768 5769 5764 5758 5762 5763 5758 5770 5769 5765 5762 5759 5759
5576 5578 5579 5580 5578 5581 5576 5581 5574 5572 5560 5551 5559 5547 5569 5580 5585 5594 5607 5622 5632 5644 5658 5671 5686 5706 5719 5726 5743 5758 5764 5763 5765 5761 5763 5762 5763 5767 5765 5759 5758 5759 5759 5759
5574 5578 5579 5575 5576 5576 5578 5577 5571 5561 5548 5539 5546 5536 5528 5529 5540 5564 5580 5595 5611 5619 5631 5647 5663 5681 5700 5709 5717 5733 5754 5762 5762 5761 5761 5761 5765 5768 5760 5758 5757 5758 5760 5756
5553 5565 5566 5566 5560 5563 5556 5553 5533 5538 5533 5527 5536 5522 5505 5525 5530 5539 5550 5562 5578 5590 5603 5618 5640 5657 5668 5687 5701 5716 5737 5754 5758 5758 5758 5764 5767 5762 5762 5761 5760 5754 5750 5753
5524 5547 5547 5549 5547 5543 5540 5543 5504 5483 5513 5513 5528 5513 5508 5521 5527 5522 5534 5548 5557 5568 5577 5592 5611 5628 5637 5658 5676 5695 5713 5737 5745 5748 5751 5752 5758 5756 5755 5755 5754 5756 5758 5754
5515 5525 5539 5544 5542 5539 5538 5526 5536 5511 5512 5505 5515 5513 5523 5517 5525 5529 5534 5545 5548 5553 5553 5562 5580 5600 5611 5630 5649 5664 5680 5702 5717 5730 5731 5733 5731 5732 5737 5740 5742 5744 5745 5751
5522 5506 5531 5530 5537 5536 5531 5531 5517 5507 5508 5507 5514 5502 5496 5514 5516 5527 5524 5525 5537 5541 5541 5545 5554 5574 5589 5605 5622 5638 5652 5664 5681 5696 5713 5722 5722 5722 5725 5722 5724 5728 5730 5727
5516 5507 5516 5521 5518 5513 5507 5505 5505 5508 5495 5483 5494 5499 5513 5508 5513 5515 5515 5521 5523 5529 5535 5536 5541 5551 5571 5584 5598 5612 5626 5639 5652 5662 5679 5694 5705 5711 5714 5711 5711 5713 5717 5705
5508 5494 5490 5504 5512 5513 5511 5499 5489 5484 5485 5476 5478 5491 5505 5502 5504 5509 5508 5507 5510 5517 5522 5531 5534 5538 5553 5568 5580 5590 5599 5610 5620 5634 5648 5660 5677 5685 5690 5700 5702 5701 5700 5701
5503 5484 5467 5503 5513 5508 5497 5492 5481 5475 5470 5478 5476 5490 5504 5498 5498 5495 5496 5497 5497 5503 5511 5516 5518 5528 5538 5546 5558 5568 5574 5588 5599 5607 5617 5629 5642 5651 5658 5668 5676 5676 5681 5686
5502 5486 5486 5476 5496 5482 5481 5481 5473 5464 5426 5447 5473 5482 5488 5484 5483 5483 5484 5488 5490 5491 5493 5497 5506 5519 5525 5534 5532 5543 5554 5563 5574 5587 5592 5603 5612 5619 5627 5636 5644 5651 5659 5667
5486 5471 5480 5482 5481 5477 5477 5472 5464 5456 5458 5444 5471 5465 5472 5472 5472 5474 5473 5477 5479 5482 5484 5487 5492 5499 5506 5510 5515 5525 5535 5541 5549 5562 5569 5577 5589 5600 5606 5614 5624 5632 5635 5641
5474 5459 5469 5460 5476 5471 5472 5472 5465 5464 5463 5459 5463 5464 5470 5464 5465 5466 5462 5465 5467 5470 5473 5473 5478 5482 5485 5489 5497 5509 5514 5520 5535 5547 5544 5556 5564 5575 5586 5592 5601 5612 5610 5616
5468 5463 5450 5459 5471 5471 5447 5468 5473 5479 5473 5469 5465 5466 5462 5459 5457 5459 5453 5453 5454 5455 5457 5458 5458 5457 5463 5468 5476 5480 5487 5499 5513 5524 5527 5534 5546 5553 5557 5566 5577 5584 5594 5595
5457 5455 5448 5440 5457 5415 5486 5488 5482 5472 5468 5467 5464 5461 5456 5454 5452 5451 5449 5448 5444 5444 5447 5448 5450 5452 5449 5450 5456 5461 5463 5480 5490 5496 5499 5512 5516 5526 5534 5540 5550 5562 5569 5573
5457 5450 5413 5405 5440 5469 5481 5473 5467 5465 5460 5459 5454 5451 5451 5449 5444 5445 5443 5442 5435 5432 5430 5432 5433 5434 5436 5439 5439 5442 5454 5463 5473 5477 5479 5480 5488 5496 5507 5518 5529 5538 5546 5554
5445 5443 5422 5410 5407 5417 5475 5470 5467 5455 5443 5455 5452 5447 5444 5439 5426 5431 5437 5431 5425 5421 5419 5419 5420 5422 5424 5425 5425 5425 5428 5435 5445 5450 5457 5463 5467 5476 5492 5492 5503 5516 5521 5531
5433 5428 5408 5410 5415 5442 5469 5466 5457 5445 5443 5445 5442 5436 5432 5426 5425 5432 5426 5423 5416 5410 5407 5405 5405 5404 5405 5407 5408 5411 5416 5417 5417 5425 5434 5439 5446 5452 5460 5471 5480 5487 5496 5508
5448 5426 5422 5425 5417 5415 5465 5461 5449 5446 5441 5440 5436 5431 5428 5426 5425 5422 5419 5413 5408 5402 5398 5394 5392 5392 5391 5392 5396 5401 5405 5409 5412 5417 5418 5420 5425 5431 5438 5449 5459 5467 5471 5485
5438 5453 5435 5438 5444 5456 5455 5456 5454 5445 5435 5433 5430 5424 5421 5418 5419 5415 5409 5403 5398 5393 5389 5384 5380 5381 5381 5381 5382 5386 5391 5394 5399 5403 5405 5405 5408 5411 5418 5425 5436 5442 5455 5466
5447 5442 5435 5441 5457 5445 5445 5445 5443 5437 5429 5428 5421 5418 5415 5414 5410 5404 5397 5391 5386 5382 5379 5377 5374 5371 5371 5372 5373 5373 5379 5384 5389 5395 5399 5401 5401 5400 5401 5404 5410 5420 5430 5440
5438 5434 5431 5430 5446 5440 5442 5435 5434 5434 5429 5424 5420 5415 5414 5406 5398 5391 5385 5382 5379 5380 5376 5371 5368 5366 5365 5364 5364 5367 5371 5373 5377 5381 5384 5389 5391 5390 5394 5395 5400 5405 5420 5421
5431 5434 5422 5437 5442 5440 5439 5437 5434 5429 5426 5424 5417 5413 5401 5393 5385 5381 5375 5374 5373 5371 5369 5366 5361 5360 5357 5356 5356 5357 5359 5362 5366 5372 5375 5378 5380 5385 5389 5395 5404 5400 5406 5403